TimeEST,TemperatureF,Dew PointF,Humidity,Sea Level PressureIn,VisibilityMPH,Wind Direction,Wind SpeedMPH,Gust SpeedMPH,PrecipitationIn,Events,Conditions,WindDirDegrees,DateUTC
12:05 AM,6.8,1.4,79,29.91,1.0,NW,18.4,-,0.00,Snow,Light Snow,320,2013-02-01 05:05:00
12:21 AM,6.8,1.4,79,29.91,1.2,NW,15.0,-,0.00,Snow,Light Snow,320,2013-02-01 05:21:00
12:33 AM,5.0,1.4,85,29.92,1.2,NW,12.7,-,0.00,Snow,Light Snow,310,2013-02-01 05:33:00
12:53 AM,5.0,1.0,84,30.01,1.0,NW,15.0,-,0.00,Snow,Light Snow,320,2013-02-01 05:53:00
1:00 AM,5.0,1.4,85,29.92,0.8,NW,12.7,23.0,0.00,Snow,Light Snow,320,2013-02-01 06:00:00
1:13 AM,5.0,1.4,85,29.93,0.8,NW,15.0,-,0.00,Snow,Light Snow,320,2013-02-01 06:13:00
1:17 AM,5.0,1.4,85,29.93,1.0,NW,13.8,-,0.00,Snow,Light Snow,310,2013-02-01 06:17:00
1:30 AM,6.8,1.4,79,29.93,0.8,NW,19.6,24.2,0.00,Snow,Light Snow,310,2013-02-01 06:30:00
1:46 AM,5.0,-0.4,78,29.93,1.2,NW,16.1,-,0.00,Snow,Light Snow,320,2013-02-01 06:46:00
1:53 AM,5.0,-0.0,80,30.01,2.0,NNW,15.0,-,0.00,Snow,Light Snow,330,2013-02-01 06:53:00
2:05 AM,5.0,-0.4,78,29.93,3.0,NW,16.1,-,0.00,Snow,Light Snow,320,2013-02-01 07:05:00
2:21 AM,5.0,-0.4,78,29.93,2.0,NW,12.7,-,0.00,Snow,Light Snow,320,2013-02-01 07:21:00
2:30 AM,5.0,-0.4,78,29.94,1.2,NW,15.0,-,0.00,Snow,Light Snow,320,2013-02-01 07:30:00
2:39 AM,5.0,1.4,85,29.94,1.0,NW,13.8,-,0.00,Snow,Light Snow,320,2013-02-01 07:39:00
2:53 AM,5.0,1.9,87,30.02,0.8,NW,12.7,-,0.00,Snow,Light Snow,310,2013-02-01 07:53:00
3:03 AM,6.8,1.4,79,29.94,1.0,NW,16.1,-,0.00,Snow,Light Snow,310,2013-02-01 08:03:00
3:19 AM,6.8,1.4,79,29.95,2.0,NW,10.4,-,0.00,Snow,Light Snow,310,2013-02-01 08:19:00
3:30 AM,6.8,-0.4,72,29.95,3.0,NW,12.7,-,0.00,Snow,Light Snow,320,2013-02-01 08:30:00
3:36 AM,6.8,1.4,79,29.95,1.8,NW,17.3,-,0.00,Snow,Light Snow,310,2013-02-01 08:36:00
3:53 AM,5.0,1.0,84,30.04,1.2,NW,13.8,-,0.00,Snow,Light Snow,310,2013-02-01 08:53:00
4:04 AM,5.0,1.4,85,29.95,1.2,NW,13.8,-,0.00,Snow,Light Snow,310,2013-02-01 09:04:00
4:14 AM,6.8,1.4,79,29.96,0.8,NW,13.8,-,0.00,Snow,Light Snow,310,2013-02-01 09:14:00
4:26 AM,6.8,1.4,79,29.96,2.0,WNW,16.1,20.7,0.00,Snow,Light Snow,300,2013-02-01 09:26:00
4:33 AM,6.8,-0.4,72,29.96,4.0,NW,17.3,-,0.00,Snow,Light Snow,310,2013-02-01 09:33:00
4:49 AM,5.0,-0.4,78,29.96,1.8,NW,13.8,-,0.00,Snow,Light Snow,310,2013-02-01 09:49:00
4:53 AM,5.0,1.0,84,30.05,1.2,NW,13.8,-,0.00,Snow,Light Snow,310,2013-02-01 09:53:00
4:58 AM,5.0,1.4,85,29.96,0.8,NW,15.0,-,0.00,Snow,Light Snow,310,2013-02-01 09:58:00
5:05 AM,5.0,1.4,85,29.97,1.0,NW,16.1,-,0.00,Snow,Light Snow,310,2013-02-01 10:05:00
5:20 AM,5.0,1.4,85,29.97,3.0,NW,13.8,-,0.00,Snow,Light Snow,310,2013-02-01 10:20:00
5:32 AM,6.8,1.4,79,29.97,1.8,NW,16.1,-,0.00,Snow,Light Snow,310,2013-02-01 10:32:00
5:53 AM,5.0,1.0,84,30.06,1.2,NW,15.0,-,0.00,Snow,Light Snow,310,2013-02-01 10:53:00
6:53 AM,5.0,1.0,84,30.07,1.8,NW,17.3,-,0.00,Snow,Light Snow,310,2013-02-01 11:53:00
7:28 AM,5.0,1.4,85,30.00,0.8,NW,16.1,-,0.00,Snow,Light Snow,310,2013-02-01 12:28:00
7:46 AM,5.0,-0.4,78,30.00,1.8,WNW,15.0,-,0.00,Snow,Light Snow,300,2013-02-01 12:46:00
7:53 AM,5.0,-0.0,80,30.09,2.0,WNW,13.8,-,0.00,Snow,Light Snow,290,2013-02-01 12:53:00
7:59 AM,5.0,-0.4,78,30.01,1.5,WNW,16.1,-,0.00,Snow,Light Snow,290,2013-02-01 12:59:00
8:08 AM,3.2,-0.4,85,30.01,1.8,WNW,18.4,-,0.00,Snow,Light Snow,290,2013-02-01 13:08:00
8:22 AM,3.2,-0.4,85,30.01,3.0,WNW,13.8,-,0.00,Snow,Light Snow,300,2013-02-01 13:22:00
8:29 AM,3.2,-0.4,85,30.01,1.8,WNW,16.1,-,0.00,Snow,Light Snow,300,2013-02-01 13:29:00
8:39 AM,3.2,-0.4,85,30.01,2.0,WNW,15.0,-,0.00,Snow,Light Snow,300,2013-02-01 13:39:00
8:46 AM,3.2,-0.4,85,30.01,1.0,WNW,17.3,-,0.00,Snow,Light Snow,300,2013-02-01 13:46:00
8:53 AM,3.9,-0.9,80,30.10,1.2,NW,15.0,-,0.00,Snow,Light Snow,310,2013-02-01 13:53:00
9:07 AM,3.2,-0.4,85,30.02,2.0,WNW,11.5,-,0.00,Snow,Light Snow,300,2013-02-01 14:07:00
9:17 AM,3.2,-0.4,85,30.02,1.2,WNW,12.7,-,0.00,Snow,Light Snow,290,2013-02-01 14:17:00
9:27 AM,3.2,-0.4,85,30.02,1.2,WNW,11.5,-,0.00,Snow,Light Snow,300,2013-02-01 14:27:00
9:53 AM,3.9,-2.0,76,30.11,0.8,WNW,17.3,-,0.00,Snow,Light Snow,300,2013-02-01 14:53:00
10:46 AM,3.2,-0.4,85,30.03,0.2,WNW,17.3,-,0.00,Snow,Heavy Snow,290,2013-02-01 15:46:00
10:53 AM,3.9,-0.9,80,30.11,0.2,West,16.1,23.0,0.00,Snow,Heavy Snow,280,2013-02-01 15:53:00
11:11 AM,1.4,-2.2,85,30.03,0.2,West,15.0,-,0.00,Fog-Snow,Heavy Snow,260,2013-02-01 16:11:00
11:53 AM,1.9,-2.9,80,30.13,0.5,WSW,8.1,-,0.00,Snow,Snow,240,2013-02-01 16:53:00
12:53 PM,-0.0,-5.1,79,30.12,0.2,WSW,13.8,-,0.00,Snow,Heavy Snow,250,2013-02-01 17:53:00
1:03 PM,1.4,-4.0,78,30.02,0.5,WSW,12.7,-,0.00,Snow,Snow,250,2013-02-01 18:03:00
1:53 PM,1.0,-4.0,79,30.11,0.5,WSW,15.0,-,0.00,Snow,Snow,250,2013-02-01 18:53:00
2:53 PM,1.9,-2.9,80,30.10,0.5,West,13.8,-,0.00,Snow,Snow,260,2013-02-01 19:53:00
3:01 PM,1.4,-2.2,85,30.00,0.2,West,12.7,-,0.00,Fog-Snow,Snow,260,2013-02-01 20:01:00
3:10 PM,1.4,-2.2,85,30.01,0.2,WSW,12.7,-,0.00,Fog-Snow,Snow,250,2013-02-01 20:10:00
3:26 PM,1.4,-2.2,85,30.01,0.5,West,16.1,-,0.00,Snow,Snow,260,2013-02-01 20:26:00
3:53 PM,1.9,-4.0,76,30.10,0.5,WSW,13.8,-,0.00,Snow,Snow,250,2013-02-01 20:53:00
4:27 PM,1.4,-5.8,72,30.01,1.0,WSW,15.0,20.7,0.00,Snow,Light Snow,250,2013-02-01 21:27:00
4:53 PM,1.0,-5.1,75,30.09,1.8,WSW,13.8,19.6,0.00,Snow,Light Snow,250,2013-02-01 21:53:00
5:53 PM,-0.0,-6.0,76,30.10,1.8,WSW,9.2,-,0.00,Snow,Light Snow,240,2013-02-01 22:53:00
6:13 PM,-0.4,-7.6,72,30.01,3.0,SW,9.2,-,0.00,Snow,Light Snow,230,2013-02-01 23:13:00
6:28 PM,-0.4,-7.6,72,30.01,2.0,WSW,9.2,-,0.00,Snow,Light Snow,250,2013-02-01 23:28:00
6:49 PM,-0.4,-5.8,78,30.01,1.5,SW,8.1,-,0.00,Snow,Light Snow,230,2013-02-01 23:49:00
6:53 PM,-0.9,-7.1,75,30.10,1.5,WSW,8.1,-,0.00,Snow,Light Snow,240,2013-02-01 23:53:00
7:53 PM,-0.9,-7.1,75,30.10,2.0,WSW,8.1,-,0.00,Snow,Light Snow,240,2013-02-02 00:53:00
8:46 PM,-0.4,-5.8,78,30.00,1.5,SSW,5.8,-,0.00,Snow,Light Snow,200,2013-02-02 01:46:00
8:53 PM,-2.0,-7.1,79,30.09,1.2,SW,5.8,-,0.00,Snow,Light Snow,220,2013-02-02 01:53:00
9:53 PM,-2.0,-6.0,83,30.08,1.2,SSW,3.5,-,0.00,Snow,Light Snow,210,2013-02-02 02:53:00
10:07 PM,-2.2,-5.8,85,29.99,2.5,Calm,Calm,-,0.00,Snow,Light Snow,0,2013-02-02 03:07:00
10:17 PM,-0.4,-5.8,78,29.99,1.2,South,3.5,-,0.00,Snow,Light Snow,190,2013-02-02 03:17:00
10:25 PM,-0.4,-5.8,78,29.99,0.8,South,4.6,-,0.00,Snow,Light Snow,190,2013-02-02 03:25:00
10:53 PM,-2.0,-6.0,83,30.08,1.5,SW,4.6,-,0.01,Snow,Light Snow,220,2013-02-02 03:53:00
11:06 PM,-2.2,-5.8,85,29.98,1.8,SW,3.5,-,0.00,Snow,Light Snow,220,2013-02-02 04:06:00
11:40 PM,-0.4,-5.8,78,29.98,1.0,SW,4.6,-,0.00,Snow,Light Snow,220,2013-02-02 04:40:00
11:53 PM,-0.9,-5.1,83,30.08,1.0,SSW,4.6,-,0.00,Snow,Light Snow,210,2013-02-02 04:53:00